TimeCDT,TemperatureF,Dew PointF,Humidity,Sea Level PressureIn,VisibilityMPH,Wind Direction,Wind SpeedMPH,Gust SpeedMPH,PrecipitationIn,Events,Conditions,WindDirDegrees,DateUTC
12:53 AM,82.0,57.9,44,29.95,10.0,South,11.5,-,N/A,,Clear,190,2013-07-09 05:53:00
1:53 AM,81.0,59.0,47,29.96,10.0,SSW,15.0,-,N/A,,Clear,200,2013-07-09 06:53:00
2:53 AM,79.0,59.0,50,29.96,10.0,SSW,16.1,-,N/A,,Clear,200,2013-07-09 07:53:00
3:53 AM,77.0,60.1,56,29.96,10.0,SSW,16.1,-,N/A,,Clear,200,2013-07-09 08:53:00
4:53 AM,75.9,60.1,58,29.97,10.0,SSW,15.0,23.0,N/A,,Clear,210,2013-07-09 09:53:00
5:53 AM,75.0,59.0,57,29.97,10.0,SSW,13.8,-,N/A,,Clear,210,2013-07-09 10:53:00
6:53 AM,73.9,57.9,57,29.98,10.0,SSW,11.5,-,N/A,,Clear,210,2013-07-09 11:53:00
7:53 AM,75.0,57.9,55,29.99,10.0,SSW,13.8,-,N/A,,Clear,210,2013-07-09 12:53:00
8:53 AM,78.1,57.9,50,30.00,10.0,SSW,17.3,-,N/A,,Clear,210,2013-07-09 13:53:00
9:53 AM,81.0,59.0,47,30.01,10.0,SW,17.3,-,N/A,,Clear,220,2013-07-09 14:53:00
10:53 AM,82.9,59.0,44,30.02,10.0,SSW,10.4,-,N/A,,Clear,200,2013-07-09 15:53:00
11:53 AM,86.0,57.9,38,30.01,10.0,SW,12.7,18.4,N/A,,Clear,220,2013-07-09 16:53:00
12:53 PM,90.0,57.0,33,29.99,10.0,SSW,15.0,23.0,N/A,,Clear,210,2013-07-09 17:53:00
1:53 PM,91.9,55.0,29,29.97,10.0,South,15.0,23.0,N/A,,Clear,190,2013-07-09 18:53:00
2:53 PM,93.0,55.0,28,29.96,10.0,SSW,15.0,18.4,N/A,,Clear,210,2013-07-09 19:53:00
3:53 PM,93.9,55.9,28,29.94,10.0,South,4.6,18.4,N/A,,Clear,180,2013-07-09 20:53:00
3:57 PM,93.2,55.4,28,30.12,10.0,South,4.6,18.4,N/A,,Scattered Clouds,180,2013-07-09 20:57:00
4:53 PM,95.0,55.0,26,29.91,10.0,SSW,13.8,23.0,N/A,,Clear,210,2013-07-09 21:53:00
5:53 PM,95.0,55.9,27,29.90,10.0,SSE,18.4,25.3,N/A,,Partly Cloudy,160,2013-07-09 22:53:00
6:53 PM,93.9,57.9,30,29.88,10.0,SSE,20.7,25.3,N/A,,Partly Cloudy,150,2013-07-09 23:53:00
7:53 PM,91.0,57.9,33,29.89,10.0,South,18.4,-,N/A,,Clear,180,2013-07-10 00:53:00
8:53 PM,88.0,57.9,36,29.90,10.0,SSE,12.7,21.9,N/A,,Clear,160,2013-07-10 01:53:00
9:53 PM,86.0,57.9,38,29.92,10.0,South,10.4,-,N/A,,Clear,170,2013-07-10 02:53:00
10:52 PM,86.0,57.2,37,30.10,10.0,SSE,10.4,-,N/A,,Scattered Clouds,160,2013-07-10 03:52:00
10:53 PM,84.0,57.9,41,29.95,10.0,South,12.7,-,N/A,,Clear,180,2013-07-10 03:53:00
11:53 PM,82.9,57.9,42,29.96,10.0,South,13.8,-,N/A,,Clear,190,2013-07-10 04:53:00